Weather History for Monett, MO

Change the Weather History Date:

Saturday, November 10, 2012

  Actual Average (KJLN) Record (KJLN)
Temperature  
Mean Temperature 66 °F 51 °F  
Max Temperature 73 °F 62 °F 79 °F (1949)
Min Temperature 60 °F 40 °F 19 °F (1960)
Degree Days  
Heating Degree Days 0 14  
Month to date heating degree days 125  
Since 1 July heating degree days 377  
Cooling Degree Days 2 0  
Month to date cooling degree days 5  
Year to date cooling degree days 1696  
Growing Degree Days 16 (Base 50)    
Moisture  
Dew Point 51 °F    
Average Humidity 60    
Maximum Humidity 72    
Minimum Humidity 41    
Precipitation  
Precipitation 0.00 in 0.14 in 0.89 in (2004)
Month to date precipitation 1.32  
Year to date precipitation 41.27  
Sea Level Pressure  
Sea Level Pressure 29.90 in    
Wind  
Wind Speed 17 mph (South)    
Max Wind Speed 26 mph    
Max Gust Speed 34 mph    
Visibility 10 miles    
Events      
T = Trace of Precipitation, MM = Missing Value Source: NWS Daily Summary

Daily Weather History Graph

Daily Weather History Graph

Search for Another Location

Airport:

Trip Planner

Search our weather history database for the weather conditions in past years. The results will help you decide how hot, cold, wet, or windy it might be!

Date:

Astronomy

Nov. 10, 2012 Rise Set
Actual Time 6:49 AM CST 5:09 PM CST
Civil Twilight 6:22 AM CST 5:37 PM CST
Nautical Twilight 5:51 AM CST 6:08 PM CST
Astronomical Twilight 5:20 AM CST 6:38 PM CST
Moon 3:00 AM CST (11/10) 2:53 PM CST (11/10)
Length of Visible Light 11h 14m
Length of Day
10h 20m
Waning Crescent, 14% of the Moon is Illuminated
Nov 10
Waning Crescent
Nov 13
New
Nov 20
First Quarter
Nov 28
Full
Dec 6
Last Quarter

Hourly Weather History & Observations

Time (CST) Temp. Dew Point Humidity Pressure Visibility Wind Dir Wind Speed Gust Speed Precip Events Conditions
4:15 AM 60.8 °F 51.8 °F 72% 29.93 in 10.0 mi South 15.0 mph - N/A   Clear
4:35 AM 60.8 °F 51.8 °F 72% 29.94 in 10.0 mi South 17.3 mph - N/A   Clear
4:55 AM 60.8 °F 51.8 °F 72% 29.95 in 10.0 mi South 15.0 mph 20.7 mph N/A   Clear
5:15 AM 60.8 °F 51.8 °F 72% 29.95 in 10.0 mi South 16.1 mph 21.9 mph N/A   Clear
5:35 AM 60.8 °F 51.8 °F 72% 29.95 in 10.0 mi South 15.0 mph - N/A   Clear
5:55 AM 60.8 °F 51.8 °F 72% 29.95 in 10.0 mi South 15.0 mph 20.7 mph N/A   Clear
6:35 AM 60.8 °F 50.0 °F 68% 29.96 in 10.0 mi South 15.0 mph - N/A   Clear
6:55 AM 60.8 °F 50.0 °F 68% 29.96 in 10.0 mi South 15.0 mph 20.7 mph N/A   Clear
7:15 AM 60.8 °F 50.0 °F 68% 29.96 in 10.0 mi South 15.0 mph 21.9 mph N/A   Clear
7:35 AM 60.8 °F 51.8 °F 72% 29.97 in 10.0 mi South 16.1 mph 20.7 mph N/A   Clear
7:55 AM 60.8 °F 51.8 °F 72% 29.98 in 10.0 mi South 15.0 mph - N/A   Clear
8:15 AM 62.6 °F 51.8 °F 68% 29.98 in 10.0 mi South 18.4 mph 23.0 mph N/A   Clear
8:55 AM 64.4 °F 51.8 °F 64% 29.98 in 10.0 mi South 19.6 mph 26.5 mph N/A   Clear
9:15 AM 64.4 °F 51.8 °F 64% 29.98 in 10.0 mi South 21.9 mph 27.6 mph N/A   Clear
9:35 AM 66.2 °F 51.8 °F 60% 29.97 in 10.0 mi South 25.3 mph 29.9 mph N/A   Clear
9:55 AM 68.0 °F 51.8 °F 56% 29.97 in 10.0 mi South 24.2 mph 32.2 mph N/A   Clear
10:15 AM 68.0 °F 51.8 °F 56% 29.96 in 10.0 mi South 25.3 mph 31.1 mph N/A   Clear
10:35 AM 69.8 °F 51.8 °F 53% 29.96 in 10.0 mi South 23.0 mph 34.5 mph N/A   Clear
10:55 AM 68.0 °F 51.8 °F 56% 29.96 in 10.0 mi South 17.3 mph 26.5 mph N/A   Clear
11:15 AM 68.0 °F 51.8 °F 56% 29.95 in 10.0 mi South 19.6 mph 25.3 mph N/A   Clear
11:35 AM 68.0 °F 51.8 °F 56% 29.94 in 10.0 mi South 16.1 mph 24.2 mph N/A   Clear
11:55 AM 68.0 °F 51.8 °F 56% 29.93 in 10.0 mi South 19.6 mph 24.2 mph N/A   Clear
12:15 PM 69.8 °F 51.8 °F 53% 29.92 in 10.0 mi South 20.7 mph 26.5 mph N/A   Clear
12:35 PM 69.8 °F 51.8 °F 53% 29.91 in 10.0 mi South 15.0 mph 24.2 mph N/A   Clear
12:55 PM 71.6 °F 50.0 °F 46% 29.89 in 10.0 mi South 24.2 mph 29.9 mph N/A   Clear
1:15 PM 71.6 °F 50.0 °F 46% 29.88 in 10.0 mi South 23.0 mph 32.2 mph N/A   Clear
1:35 PM 73.4 °F 48.2 °F 41% 29.88 in 10.0 mi South 26.5 mph 34.5 mph N/A   Clear
1:55 PM 73.4 °F 50.0 °F 44% 29.87 in 10.0 mi South 19.6 mph 28.8 mph N/A   Clear
2:15 PM 73.4 °F 51.8 °F 47% 29.86 in 10.0 mi South 15.0 mph 23.0 mph N/A   Clear
2:35 PM 73.4 °F 51.8 °F 47% 29.86 in 10.0 mi SSE 15.0 mph 24.2 mph N/A   Clear
2:55 PM 71.6 °F 51.8 °F 50% 29.86 in 10.0 mi South 11.5 mph 21.9 mph N/A   Clear
3:15 PM 71.6 °F 50.0 °F 46% 29.86 in 10.0 mi South 15.0 mph 24.2 mph N/A   Clear
3:35 PM 71.6 °F 48.2 °F 43% 29.84 in 10.0 mi SSE 17.3 mph 26.5 mph N/A   Clear
3:55 PM 71.6 °F 50.0 °F 46% 29.84 in 10.0 mi SSE 18.4 mph 23.0 mph N/A   Clear
4:15 PM 71.6 °F 46.4 °F 41% 29.83 in 10.0 mi SSE 19.6 mph 28.8 mph N/A   Clear
4:55 PM 68.0 °F 48.2 °F 49% 29.85 in 10.0 mi South 15.0 mph - N/A   Clear
5:15 PM 68.0 °F 48.2 °F 49% 29.85 in 10.0 mi SSE 15.0 mph 23.0 mph N/A   Clear
5:35 PM 66.2 °F 48.2 °F 52% 29.86 in 10.0 mi SSE 11.5 mph - N/A   Clear
5:55 PM 66.2 °F 50.0 °F 56% 29.86 in 10.0 mi SSE 15.0 mph 21.9 mph N/A   Clear
6:15 PM 64.4 °F 50.0 °F 59% 29.87 in 10.0 mi SSE 16.1 mph 23.0 mph N/A   Clear
6:35 PM 64.4 °F 51.8 °F 64% 29.88 in 10.0 mi SSE 15.0 mph 21.9 mph N/A   Clear
6:55 PM 64.4 °F 51.8 °F 64% 29.88 in 10.0 mi SSE 15.0 mph - N/A   Clear
7:15 PM 64.4 °F 51.8 °F 64% 29.87 in 10.0 mi SSE 18.4 mph 25.3 mph N/A   Clear
7:35 PM 64.4 °F 51.8 °F 64% 29.87 in 10.0 mi SSE 18.4 mph 24.2 mph N/A   Clear
7:55 PM 64.4 °F 53.6 °F 68% 29.86 in 10.0 mi SSE 16.1 mph 24.2 mph N/A   Clear
8:15 PM 64.4 °F 53.6 °F 68% 29.87 in 10.0 mi SSE 18.4 mph 24.2 mph N/A   Clear
8:35 PM 62.6 °F 53.6 °F 72% 29.86 in 10.0 mi SSE 16.1 mph 21.9 mph N/A   Clear
8:55 PM 62.6 °F 53.6 °F 72% 29.84 in 10.0 mi SSE 17.3 mph 21.9 mph N/A   Clear
9:15 PM 64.4 °F 53.6 °F 68% 29.84 in 10.0 mi SSE 18.4 mph 24.2 mph N/A   Clear
9:35 PM 64.4 °F 53.6 °F 68% 29.83 in 10.0 mi SSE 21.9 mph 29.9 mph N/A   Clear
9:55 PM 64.4 °F 53.6 °F 68% 29.82 in 10.0 mi SSE 19.6 mph 28.8 mph N/A   Clear
10:15 PM 64.4 °F 53.6 °F 68% 29.83 in 10.0 mi South 21.9 mph 27.6 mph N/A   Clear
10:35 PM 64.4 °F 53.6 °F 68% 29.82 in 10.0 mi South 18.4 mph 28.8 mph N/A   Clear
10:55 PM 64.4 °F 53.6 °F 68% 29.82 in 10.0 mi South 19.6 mph 25.3 mph N/A   Clear
11:15 PM 64.4 °F 53.6 °F 68% 29.82 in 10.0 mi South 16.1 mph 25.3 mph N/A   Clear
11:35 PM 64.4 °F 53.6 °F 68% 29.83 in 10.0 mi SSE 13.8 mph 23.0 mph N/A   Clear
11:55 PM 64.4 °F 53.6 °F 68% 29.84 in 10.0 mi South 15.0 mph 23.0 mph N/A   Clear